sat.trackr.live / text

‹ back to catalog

STARLINK-37586

NORAD 69521 · 2026-133P

PAYLOAD ACTIVE UNKNOWN

§ Identity

Operator
Country
US
Launch date
2026-06-12
Launch site
AFETR
Launch vehicle
Mass (kg)
RCS (m²)

Purposes: comms

External: N2YO · Heavens-Above · Gunter

§ Orbital elements

Epoch: 2026-09-19T21:38:21.875712Z

Period
93.85 min
Inclination
53.1579°
Eccentricity
0.0001093
Mean motion
15.34395926 rev/d
Perigee alt
462.0 km
Apogee alt
463.5 km
Semi-major
6,840.9 km
B*
4.6118e-4
RAAN
232.3950°
Arg perigee
52.9686°
Mean anomaly
307.1416°
Rev number
1,667

§ Raw data

STARLINK-375861 69521U 26133P   26262.90164208  .00015235  00000+0  46118-3 0  99942 69521  53.1579 232.3950 0001093  52.9686 307.1416 15.34395926 16677

JSON: /api/v1/satellites/69521 · /tle

For live sub-satellite position, see the globe view (requires WebGL).

§ Visibility from observer

Set your observer location to see the next 7 days of passes ≥ 10°. The values pass through the URL so the page stays shareable.

No JS? Fill the form by hand. The geolocation button needs JavaScript.